{"data":{"norad_id":57399,"intl_designator":"2023-101A","name":"TIANMU-1 07","alt_names":[],"object_type":"PAYLOAD","status":"ACTIVE","operator":null,"country":"PRC","launch_date":"2023-07-20","launch_site_code":"JSC","launch_vehicle":null,"mission":null,"orbit_class":"UNKNOWN","rcs_meters":null,"size_class":null,"mass_kg":null,"dimensions":null,"purposes":["earth_obs"],"wikipedia_slug":null,"has_3d_model":false,"image_url":null,"decayed_at":null,"tle_current":{"epoch":"2026-09-19T23:30:45.617760Z","epoch_age_seconds":60102,"freshness":"FRESH","line1":"1 57399U 23101A   26262.97969465  .00003914  00000+0  13423-3 0  9995","line2":"2 57399  97.2505 311.4847 0003607 133.2467 226.9076 15.30743071176145","mean_motion":15.30743071,"eccentricity":0.0003607,"inclination_deg":97.2505,"raan_deg":311.4847,"arg_perigee_deg":133.2467,"mean_anomaly_deg":226.9076,"bstar":0.00013423,"rev_number":17614,"period_min":94.071959382399,"perigee_km":471.12261733122,"apogee_km":476.06545610111,"semimajor_km":6851.7310367162,"source":"CELESTRAK","updated_at":"2026-09-20T09:00:33.253006Z"}}}